Tracking 29018 objects as of 15-Jun-2024
HD Live streaming from Space Station
objects crossing your sky now

STARLINK-30178

Track STARLINK-30178 now!
10-day predictions
STARLINK-30178 is classified as:


NORAD ID: 57447
Int'l Code: 2023-105T
Perigee: 565.4 km
Apogee: 567.0 km
Inclination: 43.0 °
Period: 95.8 minutes
Semi major axis: 6937 km
RCS: Unknown
Launch date: July 24, 2023
Source: United States (US)
Launch site: AIR FORCE EASTERN TEST RANGE (AFETR)
Your satellite tracking list
Your tracking list is empty




NASA's NSSDC Master Catalog

Two Line Element Set (TLE):
1 57447U 23105T   24166.83092235  .00002136  00000-0  17313-3 0  9999
2 57447  43.0014 100.3013 0001134 268.9054  91.1659 15.02536792 50367
Source of the keplerian elements: AFSPC